Location: Spring Creek
(38.2870°N, 100.2160°W)
Time: 23:42:58
(UTC+00:00)

SJ 16-02 - Pass Details

Date: 08 May 2021
Orbit: 606 x 616 km, 75.0° (Epoch: 21 June)

Event Time Altitude Azimuth Distance (km) Brightness Sun altitude
Exits shadow 06:05:55 13° 303° (WNW) 1,764 4.1 -34.1°
Drops below altitude 10° 06:07:54 10° 330° (NNW) 1,983 4.7 -34.1°
Sets 06:11:17 0° 357° (N) 2,894 5.8 -34.2°
